This demonstration page uses our WeatherBlox Daily Observations layout. Learn more.

Left ArrowRight Arrow

41.55636, -103.73856

Hourly Observations for April 22, 2018

Temp ( °F °C ) Dew Point ( °F °C ) Humidity (%) Winds ( mph kmh ) Pressure ( in mb ) Visibility ( mi km ) Precip ( " mm )
12:58 am 00:58 Cloudy 35 1.4 34 1 97 97 S 9 15 30.26 1025 7 11 N/A
1:58 am 01:58 Cloudy 35 1.9 35 1.5 97 97 S 10 17 30.22 1023 7 11 N/A
2:58 am 02:58 Mostly Cloudy with Fog 35 1.6 34 1.2 97 97 SSW 13 20 30.21 1023 3 5 N/A
3:58 am 03:58 Mostly Cloudy with Fog 35 1.5 34 1.2 98 98 SW 14 22 30.20 1023 1 1 N/A
4:58 am 04:58 Cloudy with Mist and Fog 35 1.6 34 1.3 98 98 WSW 14 22 30.20 1023 5 8 N/A
5:58 am 05:58 Mostly Cloudy with Mist and Fog 34 0.9 33 0.6 98 98 SW 12 19 30.21 1023 5 8 N/A
6:58 am 06:58 Mostly Cloudy with Fog 34 1.2 34 0.9 98 98 SW 13 20 30.24 1024 1 2 N/A
7:58 am 07:58 Mostly Cloudy with Fog 35 1.5 34 1.3 99 99 SW 9 15 30.27 1025 0 0 N/A
8:58 am 08:58 Cloudy with Mist and Fog 36 2.4 36 2.1 98 98 SSW 6 9 30.27 1025 1 2 N/A
9:58 am 09:58 Mostly Sunny 43 5.9 38 3.2 83 83 WSW 5 7 30.24 1024 10 16 N/A
10:58 am 10:58 Sunny 48 8.7 38 3.5 70 70 E 3 6 30.23 1024 10 16 N/A
11:58 am 11:58 Mostly Sunny 53 11.9 38 3.5 57 57 NNW 9 15 30.21 1023 10 16 N/A
12:58 pm 12:58 Sunny 57 13.8 38 3.6 50 50 NNE 7 11 30.14 1021 10 16 N/A
1:58 pm 13:58 Sunny 57 13.7 35 1.6 44 44 E 5 7 30.14 1021 10 16 N/A
2:58 pm 14:58 Sunny 60 15.3 35 1.7 40 40 N 3 6 30.11 1020 10 16 N/A
3:58 pm 15:58 Sunny 60 15.5 32 -0.1 35 35 NNW 3 6 30.09 1019 10 16 N/A
4:58 pm 16:58 Sunny 60 15.6 33 0.4 36 36 S 3 6 30.08 1019 10 16 N/A
5:58 pm 17:58 Sunny 60 15.4 34 1.1 38 38 SSE 7 11 30.08 1019 10 16 N/A
6:58 pm 18:58 Sunny 56 13.5 39 3.9 53 53 SE 13 20 30.09 1019 10 16 N/A
7:58 pm 19:58 Clear 47 8.2 38 3.2 71 71 SSE 8 13 30.15 1021 10 16 N/A
8:58 pm 20:58 Clear 45 7.1 37 2.7 74 74 SSE 12 19 30.17 1022 10 16 N/A
9:58 pm 21:58 Clear 43 6 37 2.9 81 81 SSE 10 17 30.16 1022 10 16 N/A
10:58 pm 22:58 Clear 41 5 37 2.5 84 84 S 8 13 30.15 1021 10 16 N/A
11:58 pm 23:58 Clear 40 4.4 36 2 85 85 S 9 15 30.14 1021 10 16 N/A

Powered by AerisWeather